This is the latest recevied weather packets stored in our database for station/object K7KAR-2. If no packets are shown the sender has not sent any weather packets the latest 10 day(s).
| Time | Temp. | Humidity | Pressure | Rain* | Wind** | Luminosity | Snow |
|---|---|---|---|---|---|---|---|
| 1778283861 | 22.22° C | 10% | 1007.8 hPa | 0 mm | - | 163 W/m² | - |
| 1778283558 | 22.22° C | 10% | 1008.1 hPa | 0 mm | - | 184 W/m² | - |
| 1778283258 | 22.78° C | 10% | 1008.2 hPa | 0 mm | - | 205 W/m² | - |
| 1778282954 | 22.22° C | 10% | 1008.1 hPa | 0 mm | - | 231 W/m² | - |
| 1778282651 | 22.22° C | 10% | 1008.1 hPa | 0 mm | - | 205 W/m² | - |
| 1778282348 | 22.22° C | 10% | 1008.1 hPa | 0 mm | - | 160 W/m² | - |
| 1778282045 | 22.78° C | 10% | 1008.1 hPa | 0 mm | - | 203 W/m² | - |
| 1778281742 | 22.78° C | 10% | 1007.9 hPa | 0 mm | - | 186 W/m² | - |
| 1778281439 | 22.78° C | 10% | 1008.1 hPa | 0 mm | - | 204 W/m² | - |
| 1778281136 | 22.22° C | 10% | 1008.1 hPa | 0 mm | - | 370 W/m² | - |
| 1778280832 | 22.22° C | 10% | 1008.2 hPa | 0 mm | - | 198 W/m² | - |
| 1778280530 | 22.78° C | 10% | 1008.2 hPa | 0 mm | - | 399 W/m² | - |
| 1778280228 | 22.78° C | 10% | 1008.3 hPa | 0 mm | - | 378 W/m² | - |
| 1778279925 | 22.78° C | 10% | 1008.3 hPa | 0 mm | - | 528 W/m² | - |
| 1778279622 | 22.22° C | 10% | 1008.3 hPa | 0 mm | - | 268 W/m² | - |
| 1778279320 | 22.22° C | 10% | 1008.3 hPa | 0 mm | - | 234 W/m² | - |
| 1778279017 | 22.78° C | 10% | 1008.1 hPa | 0 mm | - | 302 W/m² | - |
| 1778278713 | 22.22° C | 10% | 1008.5 hPa | 0 mm | - | 467 W/m² | - |
| 1778278409 | 22.78° C | 10% | 1008.4 hPa | 0 mm | - | 323 W/m² | - |
| 1778278105 | 22.78° C | 10% | 1008.5 hPa | 0 mm | - | 273 W/m² | - |
| 1778277802 | 21.67° C | 10% | 1008.5 hPa | 0 mm | - | 603 W/m² | - |
| 1778277499 | 21.67° C | 13% | 1008.6 hPa | 0 mm | - | 219 W/m² | - |
| 1778277195 | 21.67° C | 13% | 1008.6 hPa | 0 mm | - | 215 W/m² | - |
| 1778276892 | 21.67° C | 10% | 1008.7 hPa | 0 mm | - | 174 W/m² | - |
| 1778276589 | 22.22° C | 11% | 1008.8 hPa | 0 mm | - | 196 W/m² | - |
* Rain latest hour (hover to see other rain measurements)
** Current wind speed in m/s (hover to see current wind gust speed)